Date String (YYYY-MM-DD hh:mm:ss) UTC,Instrument flags,Ambient pressure (hPa),Sample flow (lpm),Bypass flow (lpm),Sample temperature (°C),Ambient temperature (°C),ASC tube jacket temperature (°C),LED temperature (°C),Box temperature (°C),Sample RH (%),Span deviation,Mass concentration (μg/m³),Mass concentration (μg/m³),Mass concentration (μg/m³)
DateTimeUTC,F1_M11,P_M11,Q1_M11,Q2_M11,T1_M11,T2_M11,T3_M11,T4_M11,T5_M11,U1_M11,ZSPAN_M11,X0_M11,X2_M11,X1_M11
2022-10-28 04:00:00,,0831.4,5.00,0.00,25.0,23.5,00.0,33.8,26.9,14.3,0000.0,0005.91,0002.83,0002.23
2022-10-28 04:01:00,,0831.3,5.00,0.00,25.0,23.5,00.0,33.8,26.9,14.4,0000.0,0005.63,0002.76,0002.23
2022-10-28 04:02:00,,0831.4,4.98,0.00,25.0,23.5,00.0,33.8,26.9,14.3,0000.0,0004.97,0002.75,0002.23
2022-10-28 04:03:00,,0831.4,5.00,0.00,25.0,23.5,00.0,33.8,26.9,14.2,0000.0,0004.35,0002.71,0002.22
2022-10-28 04:04:00,,0831.4,5.00,0.00,25.0,23.5,00.0,33.8,26.9,14.0,0000.0,0005.55,0002.68,0002.21
2022-10-28 04:05:00,,0831.4,5.01,0.00,25.0,23.5,00.0,33.8,26.8,14.0,0000.0,0005.52,0002.63,0002.20
2022-10-28 04:06:00,,0831.4,5.00,0.00,25.0,23.4,00.0,33.8,26.8,14.1,0000.0,0005.69,0002.60,0002.20
2022-10-28 04:07:00,,0831.4,4.98,0.00,25.0,23.4,00.0,33.8,26.8,13.9,0000.0,0006.73,0002.63,0002.20
2022-10-28 04:08:00,,0831.4,5.00,0.00,25.0,23.4,00.0,33.8,26.8,13.8,0000.0,0006.65,0002.63,0002.21
2022-10-28 04:09:00,,0831.4,5.00,0.00,25.0,23.4,00.0,33.8,26.8,13.7,0000.0,0006.72,0002.62,0002.21
2022-10-28 04:10:00,,0831.4,5.00,0.00,25.0,23.4,00.0,33.8,26.8,13.8,0000.0,0006.83,0002.60,0002.21
2022-10-28 04:11:00,,0831.3,5.00,0.00,25.0,23.4,00.0,33.8,26.8,13.9,0000.0,0006.82,0002.58,0002.20
2022-10-28 04:12:00,,0831.3,5.00,0.00,25.0,23.4,00.0,33.8,26.8,13.8,0000.0,0006.83,0002.57,0002.20
2022-10-28 04:13:00,,0831.3,4.98,0.00,25.0,23.4,00.0,33.8,26.8,13.8,0000.0,0006.92,0002.58,0002.20
2022-10-28 04:14:00,,0831.3,5.00,0.00,25.0,23.4,00.0,33.8,26.8,13.7,0000.0,0006.92,0002.58,0002.20
2022-10-28 04:15:00,,0831.3,5.00,0.00,25.0,23.4,00.0,33.8,26.8,13.7,0000.0,0005.94,0002.61,0002.22
2022-10-28 04:16:00,,0831.4,5.00,0.00,25.0,23.4,00.0,33.8,26.8,13.7,0000.0,0005.89,0002.69,0002.24
2022-10-28 04:17:00,,0831.4,5.00,0.00,25.0,23.4,00.0,33.8,26.8,13.6,0000.0,0005.98,0002.73,0002.26
2022-10-28 04:18:00,,0831.3,5.00,0.00,24.9,23.3,00.0,33.8,26.8,13.5,0000.0,0005.03,0002.76,0002.25
2022-10-28 04:19:00,,0831.4,5.00,0.00,24.9,23.3,00.0,33.8,26.8,13.6,0000.0,0004.94,0002.77,0002.25
2022-10-28 04:20:00,,0831.3,4.98,0.00,24.9,23.3,00.0,33.8,26.8,13.6,0000.0,0004.97,0002.78,0002.24
2022-10-28 04:21:00,,0831.3,5.00,0.00,24.9,23.3,00.0,33.8,26.7,13.4,0000.0,0004.86,0002.81,0002.25
2022-10-28 04:22:00,,0831.3,5.00,0.00,24.9,23.3,00.0,33.8,26.7,13.3,0000.0,0004.74,0002.80,0002.25
2022-10-28 04:23:00,,0831.3,5.00,0.00,24.9,23.3,00.0,33.8,26.7,13.2,0000.0,0004.75,0002.79,0002.25
2022-10-28 04:24:00,,0831.4,5.00,0.00,24.9,23.3,00.0,33.8,26.7,12.9,0000.0,0004.81,0002.80,0002.25
2022-10-28 04:25:00,,0831.3,5.00,0.00,24.9,23.3,00.0,33.8,26.7,12.8,0000.0,0004.92,0002.82,0002.25
2022-10-28 04:26:00,,0831.3,4.99,0.00,24.9,23.3,00.0,33.8,26.7,12.8,0000.0,0004.84,0002.81,0002.25
2022-10-28 04:27:00,,0831.3,4.99,0.00,24.9,23.3,00.0,33.8,26.6,13.0,0000.0,0004.52,0002.72,0002.23
2022-10-28 04:28:00,,0831.2,5.00,0.00,24.9,23.2,00.0,33.7,26.7,13.0,0000.0,0004.76,0002.69,0002.23
2022-10-28 04:29:00,,0831.2,4.99,0.00,24.9,23.2,00.0,33.7,26.7,13.2,0000.0,0005.28,0002.68,0002.23
2022-10-28 04:30:00,,0831.1,5.00,0.00,24.9,23.2,00.0,33.7,26.7,13.6,0000.0,0005.09,0002.62,0002.21
2022-10-28 04:31:00,,0831.2,5.01,0.00,24.9,23.2,00.0,33.7,26.7,13.8,0000.0,0004.96,0002.62,0002.22
2022-10-28 04:32:00,,0831.2,5.01,0.00,24.9,23.2,00.0,33.7,26.7,13.6,0000.0,0004.85,0002.60,0002.22
2022-10-28 04:33:00,,0831.2,5.00,0.00,24.8,23.2,00.0,33.7,26.6,13.2,0000.0,0004.79,0002.62,0002.23
2022-10-28 04:34:00,,0831.2,5.00,0.00,24.8,23.2,00.0,33.7,26.7,13.0,0000.0,0004.70,0002.63,0002.24
2022-10-28 04:35:00,,0831.2,4.98,0.00,24.8,23.2,00.0,33.7,26.7,12.9,0000.0,0004.68,0002.65,0002.25
2022-10-28 04:36:00,,0831.2,5.00,0.00,24.8,23.2,00.0,33.7,26.7,12.9,0000.0,0004.62,0002.67,0002.27
2022-10-28 04:37:00,,0831.2,5.02,0.00,24.8,23.2,00.0,33.7,26.6,12.8,0000.0,0004.69,0002.70,0002.28
2022-10-28 04:38:00,,0831.2,4.99,0.00,24.8,23.2,00.0,33.7,26.6,12.8,0000.0,0004.90,0002.78,0002.31
2022-10-28 04:39:00,,0831.2,5.00,0.00,24.8,23.1,00.0,33.7,26.6,12.6,0000.0,0005.48,0002.83,0002.33
2022-10-28 04:40:00,,0831.2,5.01,0.00,24.8,23.1,00.0,33.7,26.6,12.4,0000.0,0005.68,0002.87,0002.33
2022-10-28 04:41:00,,0831.2,5.00,0.00,24.8,23.1,00.0,33.7,26.6,12.3,0000.0,0005.86,0002.94,0002.36
2022-10-28 04:42:00,,0831.2,5.00,0.00,24.8,23.2,00.0,33.7,26.6,12.3,0000.0,0005.93,0002.99,0002.39
2022-10-28 04:43:00,,0831.2,5.00,0.00,24.8,23.2,00.0,33.6,26.6,12.3,0000.0,0007.03,0003.01,0002.41
2022-10-28 04:44:00,,0831.2,5.01,0.00,24.8,23.2,00.0,33.6,26.6,12.3,0000.0,0007.47,0003.00,0002.42
2022-10-28 04:45:00,,0831.2,5.00,0.00,24.8,23.2,00.0,33.6,26.6,12.4,0000.0,0007.54,0003.06,0002.44
2022-10-28 04:46:00,,0831.3,5.00,0.00,24.8,23.2,00.0,33.6,26.6,12.6,0000.0,0007.53,0003.05,0002.43
2022-10-28 04:47:00,,0831.3,5.00,0.00,24.7,23.1,00.0,33.6,26.6,13.2,0000.0,0007.49,0003.02,0002.44
2022-10-28 04:48:00,,0831.4,5.00,0.00,24.7,23.1,00.0,33.6,26.6,13.2,0000.0,0007.51,0003.06,0002.46
2022-10-28 04:49:00,,0831.4,5.00,0.00,24.7,23.1,00.0,33.6,26.6,14.1,0000.0,0007.45,0003.03,0002.47
2022-10-28 04:50:00,,0831.3,4.99,0.00,24.7,23.1,00.0,33.6,26.6,13.8,0000.0,0006.82,0003.00,0002.48
2022-10-28 04:51:00,,0831.2,5.02,0.00,24.7,23.1,00.0,33.6,26.5,13.5,0000.0,0007.11,0002.97,0002.49
2022-10-28 04:52:00,,0831.2,4.99,0.00,24.7,23.1,00.0,33.6,26.5,13.4,0000.0,0007.01,0002.94,0002.50
2022-10-28 04:53:00,,0831.2,5.02,0.00,24.7,23.1,00.0,33.6,26.5,13.6,0000.0,0007.01,0002.92,0002.49
2022-10-28 04:54:00,,0831.2,4.98,0.00,24.7,23.0,00.0,33.6,26.5,13.6,0000.0,0006.13,0002.91,0002.49
2022-10-28 04:55:00,,0831.2,5.01,0.00,24.7,23.0,00.0,33.6,26.4,13.9,0000.0,0006.58,0002.95,0002.51
2022-10-28 04:56:00,,0831.2,5.00,0.00,24.7,23.0,00.0,33.6,26.5,14.0,0000.0,0006.53,0002.95,0002.54
2022-10-28 04:57:00,,0831.1,5.00,0.00,24.7,23.0,00.0,33.6,26.4,14.3,0000.0,0006.58,0002.99,0002.55
2022-10-28 04:58:00,,0831.2,5.00,0.00,24.7,23.0,00.0,33.6,26.4,14.5,0000.0,0006.98,0003.01,0002.56
2022-10-28 04:59:00,,0831.2,5.00,0.00,24.6,23.0,00.0,33.5,26.4,14.5,0000.0,0007.02,0003.01,0002.56
